一网星座-0184星 (ONEWEB-0184 )

导读

ONEWEB-0184是英国OneWeb低轨宽带星座的一员,于北京时间2021年4月25日由联盟2-1b运载火箭发射,属于OneWeb第六批次组网卫星,运行在1200公里近地轨道,配备Ku/Ka波段通信天线与氙等离子推力器。它作为OneWeb全球互联网星座的组成部分,可为航空、海事及偏远地区提供低时延宽带互联网服务,支撑全球无缝网络覆盖。

基本信息
目录编号:
48211
目录名称:
ONEWEB-0184
国际标识:
2021-031B
轨道中心:
EARTH
卫星名称:
一网星座-0184星
卫星全名:
一网星座-0184星 (ONEWEB-0184 )
卫星状态:
在轨 (已飞行1876 天)
发射日期:
2021-04-25 UTC
国别 :
英国 (GB)
星等 :
--
轨道信息
数据来源 国际轨道数据 AOE轨道数据
星历时间 2026-06-14T03:16:06+0800
14小时前
查看轨道信息
2026-06-11T06:00:00+0800
3天前
查看轨道信息
半长轴 7583.928km 7583.926km
偏心率 0.0001392 0.0001409
轨道倾角 87.897° 87.895°
近地点辐角 123.873° 125.834°
升交点赤经 290.374° 290.949°
平近点角 236.254° 264.081°
近地点 1204.735km 1204.72km
远地点 1206.847km 1206.858km
周期 109.547分钟 109.547分钟
每日圈数 13.145027 13.145032
详细信息
平衡模式:
三轴稳定
覆盖范围:
全球
运营商:
一网卫星公司
运营商所在国:
英国
制造商(研发单位):
一网卫星公司
制造商所在国:
英国
使用方式:
暂无
卫星简介
OneWeb卫星网络由648颗重约125公斤的微型卫星组成,运行在1200公里的轨道上。 每颗卫星都能够提供至少每秒8千兆位的吞吐量,以使用其高吞吐量的Ku频段有效载荷为家庭和移动平台提供互联网接入。该卫星仍在工作。
2D轨道图
3D轨道图
轨道高度分析图
轨道倾角分析图
轨道综合分析图
查看轨道综合分析图